千帆星座-88 (QIANFAN-88)

导读

QIANFAN-88 是中国自主研发的高分辨率遥感卫星,主要用于国土监测、环境评估和灾害预警等领域。该卫星具备高精度成像能力和多光谱探测功能,能够提供清晰的地表图像,支持农业、林业、城市规划等多行业应用。其发射进一步提升了中国在遥感技术领域的自主创新能力,为国家资源管理和应急响应提供了有力支持。

基本信息
目录编号:
63174
目录名称:
QIANFAN-88
国际标识:
2025-046R
轨道中心:
EARTH
卫星名称:
千帆星座-88
卫星全名:
千帆星座-88 (QIANFAN-88)
卫星状态:
在轨 (已飞行458 天)
发射日期:
2025-03-11 UTC
国别 :
中国 (CN)
星等 :
--
轨道信息
数据来源 国际轨道数据 AOE轨道数据
星历时间 2026-06-12T15:04:52+0800
13小时前
查看轨道信息
2026-06-09T11:00:00+0800
3天前
查看轨道信息
半长轴 7446.686km 7446.692km
偏心率 0.0010754 0.0011007
轨道倾角 88.971° 88.969°
近地点辐角 338.818° 348.730°
升交点赤经 301.021° 301.352°
平近点角 21.253° 82.594°
近地点 1060.54km 1060.358km
远地点 1076.558km 1076.752km
周期 106.587分钟 106.587分钟
每日圈数 13.51009 13.510075
详细信息
卫星平台:
88
覆盖范围:
全球
运营商:
上海垣信卫星科技有限公司
运营商所在国:
中国
使用方式:
暂无
卫星简介
千帆星座,也被称为“G60星链”计划,是中国版“星链”的重要组成部分,旨在打造一个由1.4万多颗低轨宽频多媒体卫星构成的庞大星座。千帆星座计划由上海垣信卫星科技有限公司负责实施,于2023年启动建设。该项目是我国第二个低轨卫星大星座,旨在通过构建庞大的卫星网络,为全球用户提供高质量的通信和宽带互联网服务。
2D轨道图
3D轨道图
轨道高度分析图
轨道倾角分析图
轨道综合分析图
查看轨道综合分析图